sat.trackr.live / text

‹ back to catalog

COSMOS 2548

NORAD 47230 · 2020-091D

PAYLOAD ACTIVE UNKNOWN

§ Identity

Operator
Country
CIS
Launch date
2020-12-03
Launch site
PLMSC
Launch vehicle
Mass (kg)
RCS (m²)

External: N2YO · Heavens-Above · Gunter

§ Orbital elements

Epoch: 2026-05-25T03:30:43.520256Z

Period
115.86 min
Inclination
82.4994°
Eccentricity
0.0014195
Mean motion
12.42929065 rev/d
Perigee alt
1,483.0 km
Apogee alt
1,505.4 km
Semi-major
7,872.3 km
B*
-1.8085e-4
RAAN
315.9824°
Arg perigee
242.3349°
Mean anomaly
117.6290°
Rev number
24,819

§ Raw data

COSMOS 25481 47230U 20091D   26145.14633704 -.00000015  00000+0 -18085-3 0  99962 47230  82.4994 315.9824 0014195 242.3349 117.6290 12.42929065248193

JSON: /api/v1/satellites/47230 · /tle

For live sub-satellite position, see the globe view (requires WebGL).

§ Visibility from observer

Set your observer location to see the next 7 days of passes ≥ 10°. The values pass through the URL so the page stays shareable.

No JS? Fill the form by hand. The geolocation button needs JavaScript.